Theta_e
296 289 285 287 289 289 289 288 287 291 293 292 290 291 295 298 296 295 298 298 301 305 305 307 312 318 326 326 327 328 328 329 329 328 330 329 331 331 332 333 333 332 332 331
291 283 288 291 292 290 288 285 285 289 292 290 287 288 294 295 295 295 296 299 297 295 300 301 301 305 310 320 323 327 327 328 330 331 332 330 330 331 332 332 332 331 331 330
286 287 290 291 288 286 285 284 285 286 289 290 287 285 288 294 293 294 295 295 293 293 296 295 297 295 298 299 304 311 318 327 329 330 329 329 330 331 329 329 329 330 330 329
288 291 288 287 286 287 282 289 288 286 285 281 285 280 284 292 293 292 292 292 292 292 291 292 292 292 292 294 297 302 310 322 327 329 328 328 327 326 329 330 330 331 330 330
284 287 286 285 286 288 285 289 287 287 283 280 281 278 282 288 291 287 290 291 290 289 289 288 289 290 290 291 292 296 303 307 311 318 324 328 328 330 329 328 328 329 329 330
285 290 290 289 290 290 289 286 285 284 282 276 279 278 279 281 287 287 290 290 289 288 287 287 287 288 288 289 290 293 296 298 303 307 309 313 318 325 326 327 326 327 328 326
283 284 287 290 286 289 287 283 276 272 272 273 278 277 279 285 287 288 290 288 287 287 286 285 285 285 286 286 287 291 291 292 295 300 301 303 307 313 317 320 322 323 321 312
275 277 283 288 286 284 284 283 274 266 269 273 279 276 279 286 287 287 286 286 286 286 285 284 283 284 284 285 285 287 288 289 291 295 296 298 300 304 305 305 307 307 305 305
276 277 286 288 289 288 284 280 283 276 269 273 277 279 285 287 285 285 285 285 284 284 284 283 283 282 283 283 284 285 286 287 288 291 294 294 295 296 297 299 300 301 302 303
280 277 285 287 290 289 285 286 278 277 268 267 274 277 278 283 285 285 284 283 283 283 282 282 282 282 282 283 283 284 285 286 287 289 292 292 292 293 293 294 293 294 296 297
281 278 282 285 283 282 282 279 281 279 277 270 270 274 284 284 286 286 285 284 284 283 281 281 281 281 282 282 282 283 284 284 286 288 289 290 290 290 291 290 290 290 291 292
283 279 276 280 286 287 286 283 281 276 272 274 275 274 287 287 287 287 286 285 283 282 281 280 280 281 281 281 282 282 283 284 285 286 287 288 287 287 287 287 287 288 288 289
284 273 271 275 279 283 280 284 284 282 280 275 272 275 287 287 286 287 286 284 283 281 280 279 280 279 279 280 280 281 282 283 284 285 286 285 285 285 284 285 285 286 286 286
286 279 270 269 274 277 280 283 282 279 273 277 277 278 283 285 285 285 286 285 283 282 281 280 279 279 279 279 279 280 282 283 284 284 284 283 283 283 283 283 284 284 285 285
282 275 277 276 276 278 276 282 282 275 273 275 278 280 283 284 283 284 286 285 283 282 280 280 279 278 278 278 278 279 281 282 283 282 282 281 282 282 282 282 282 283 283 284
280 272 275 273 275 278 275 279 278 275 278 278 277 278 284 284 284 284 285 285 283 283 282 281 281 280 279 279 278 279 278 279 281 281 280 281 281 281 281 281 281 281 281 282
275 270 268 266 271 272 268 274 279 279 279 278 275 280 282 282 283 285 285 285 285 284 283 281 280 280 280 279 279 277 277 278 278 278 278 279 279 279 279 279 279 279 279 280
274 269 267 266 267 262 273 274 274 278 280 280 280 281 280 280 281 282 284 285 285 284 283 281 280 279 279 278 277 277 277 277 277 277 277 277 277 277 277 278 278 278 279 279
276 268 261 264 257 265 271 273 273 274 273 278 279 276 278 280 281 281 281 282 283 284 283 282 280 279 277 277 277 276 276 276 276 275 276 276 277 276 276 276 276 277 277 278
275 271 267 254 257 257 269 272 276 276 268 276 276 276 276 281 276 278 280 280 281 282 281 280 279 278 277 276 277 276 275 275 274 275 275 275 276 276 275 275 275 276 277 277
257 258 257 258 255 262 270 274 275 265 269 275 277 277 276 276 279 281 279 278 279 278 279 278 278 277 277 277 276 275 275 275 275 275 275 275 275 275 275 275 275 275 275 275
263 259 254 254 255 260 271 273 271 274 275 277 276 276 276 277 277 277 277 277 277 276 277 277 276 276 276 276 277 275 275 275 274 273 273 273 273 275 275 274 274 274 273 272
263 266 263 266 267 271 271 274 275 277 277 276 276 277 278 277 273 272 272 271 272 273 275 274 274 274 275 276 277 275 274 273 273 273 272 272 272 274 273 273 272 272 272 271
268 266 268 267 269 270 272 273 275 276 276 278 278 278 277 274 271 272 269 269 269 268 269 268 272 272 272 276 277 278 275 274 272 271 270 270 270 270 270 272 272 271 270 270
269 269 268 268 270 269 272 272 274 275 273 273 271 273 275 273 274 273 271 269 268 268 265 265 270 271 270 271 275 276 274 272 272 269 268 269 268 269 268 269 269 270 270 271
270 270 271 270 274 274 274 271 270 272 273 273 272 269 268 271 275 270 271 268 267 268 266 267 268 268 268 266 268 265 268 269 268 267 267 267 267 266 267 267 267 272 274 275
Wind_Speed
9 5 9 9 2 7 11 10 7 5 3 4 4 8 5 10 8 5 6 6 4 6 6 7 7 5 6 6 8 12 12 13 10 7 7 7 7 6 5 6 8 8 7 8
5 5 6 9 12 14 7 13 5 2 5 3 5 6 7 6 7 4 6 4 6 6 7 12 11 8 10 4 1 5 8 11 10 7 6 3 4 3 5 7 7 8 8 8
11 7 10 13 10 11 3 8 5 2 3 2 3 4 4 5 3 3 2 5 7 8 9 9 9 10 10 11 10 7 3 6 7 6 3 3 2 1 3 2 3 5 8 8
5 3 13 10 5 8 5 6 8 9 3 1 1 1 2 7 6 4 8 9 9 9 9 10 10 11 11 10 9 9 9 6 2 7 6 7 5 5 4 4 3 7 9 9
1 9 10 13 9 6 4 9 7 4 4 3 4 1 1 3 11 8 6 5 8 8 8 10 10 9 9 9 9 9 8 9 7 7 3 7 7 3 2 2 4 4 4 4
3 4 4 5 7 7 8 13 6 3 2 1 5 3 2 1 1 4 3 2 5 7 8 9 8 8 8 9 10 10 10 10 10 8 8 7 6 3 3 2 3 3 1 3
5 3 4 4 10 4 8 8 3 3 2 4 2 3 1 3 4 3 4 5 4 6 7 8 9 9 9 11 11 9 10 11 10 9 9 8 7 6 4 2 1 1 2 3
4 2 2 2 5 9 11 8 5 7 5 2 2 4 1 1 2 4 7 6 6 6 5 8 8 8 8 9 10 10 9 9 10 9 9 7 7 5 5 6 4 3 4 4
4 2 5 3 3 6 6 3 2 7 3 4 2 2 2 2 3 4 5 5 5 4 3 7 7 7 7 8 9 8 8 8 9 8 8 9 8 8 6 7 7 5 5 5
3 5 2 1 5 4 3 6 2 3 4 2 1 1 1 4 4 2 3 4 4 3 5 6 6 6 5 6 6 8 8 7 7 8 8 8 8 8 7 7 8 8 7 7
3 4 1 2 4 3 2 3 5 5 3 4 4 1 1 2 4 3 4 3 3 3 3 3 3 4 4 5 7 6 8 9 7 7 8 9 8 8 8 8 8 8 7 8
2 4 5 5 2 2 3 4 5 4 3 1 1 0 1 1 4 2 3 4 3 3 3 3 3 4 6 6 7 7 7 6 6 7 7 9 9 9 9 9 9 8 8 9
2 3 4 3 2 2 5 3 4 5 3 2 4 2 2 1 2 1 2 3 4 4 3 2 3 5 5 6 6 6 6 6 6 7 8 9 9 9 9 9 8 9 9 9
5 4 4 5 2 2 5 5 3 5 4 3 2 4 4 2 2 2 4 4 5 4 5 4 3 3 3 5 5 5 5 6 6 7 8 9 9 9 9 9 9 9 9 10
5 4 4 4 4 3 3 6 4 4 4 5 3 5 2 2 2 3 1 3 4 4 4 4 3 3 3 4 5 4 5 6 6 8 9 8 7 8 8 9 9 9 10 9
3 3 3 5 8 7 5 4 6 3 3 5 3 2 4 1 4 1 2 4 6 5 6 5 5 5 5 4 4 5 5 5 5 7 7 7 7 8 8 8 9 9 9 9
4 5 3 2 4 4 5 4 3 3 2 7 4 5 3 2 0 3 1 5 5 6 6 6 7 6 5 5 5 5 4 4 5 6 6 6 7 8 7 7 8 8 9 8
4 4 3 2 4 2 4 2 1 2 3 5 2 2 3 4 4 4 2 1 2 5 6 6 6 5 5 5 5 5 5 5 5 4 5 5 5 6 5 6 7 7 7 8
4 5 5 5 4 5 5 4 6 6 3 6 4 1 1 4 2 2 4 3 4 4 3 5 6 7 7 7 6 6 5 5 5 5 4 4 4 5 5 6 5 5 6 7
6 8 6 4 6 6 5 2 2 2 4 5 4 3 1 3 3 4 5 4 5 5 1 5 7 5 8 7 8 8 6 5 5 4 4 4 4 5 5 5 5 3 4 6
5 6 5 2 1 8 6 2 1 8 7 6 5 4 2 3 4 3 3 3 3 2 1 5 6 7 7 7 7 7 7 6 5 5 4 4 4 5 4 4 3 3 4 5
4 6 2 3 5 7 6 3 6 6 2 5 4 3 3 4 3 4 3 2 2 1 3 5 6 5 6 7 7 6 6 6 6 5 5 4 4 3 3 5 3 3 4 4
3 7 6 9 8 5 6 3 3 4 6 5 5 5 4 3 4 2 4 3 2 3 4 3 4 5 4 6 5 6 5 6 6 6 5 4 3 3 3 4 4 3 3 3
4 3 2 4 5 8 6 4 5 5 5 5 5 6 6 5 4 5 4 4 3 3 4 3 6 6 6 5 5 4 8 6 5 4 4 4 4 3 3 2 3 3 3 3
4 4 5 6 7 6 6 8 7 7 2 2 3 4 6 5 5 5 4 4 5 5 3 4 6 6 6 4 5 4 6 8 7 5 5 4 3 3 3 2 2 2 2 3
7 8 7 9 8 7 8 5 3 8 8 9 6 3 5 5 7 4 5 4 3 6 4 4 6 5 6 4 4 4 5 7 7 5 4 4 4 3 3 3 1 2 4 7
Wind_Direction
169 160 184 166 115 125 117 111 104 95 2 19 13 294 298 316 328 304 259 182 171 169 101 65 33 331 209 183 168 175 176 184 179 182 181 201 197 188 193 195 202 191 190 187
128 167 152 123 112 117 102 112 85 83 128 67 359 291 265 277 287 258 251 220 139 122 75 50 39 22 26 35 318 173 192 175 184 189 192 184 182 192 188 192 191 186 182 182
154 172 153 152 135 119 104 110 123 126 99 84 305 277 194 243 225 269 17 66 62 84 92 66 59 37 31 29 5 354 343 192 185 196 163 132 126 116 163 169 180 186 184 185
101 320 153 152 133 125 106 144 148 157 111 163 298 167 242 203 239 15 45 29 53 67 64 56 48 44 29 19 13 5 15 23 135 164 177 208 189 191 205 200 201 197 196 196
200 154 142 155 155 122 140 125 117 113 107 111 317 137 270 174 226 78 37 21 55 65 65 53 41 41 32 22 18 11 28 39 11 33 6 198 214 211 188 182 181 195 190 192
89 108 99 156 136 104 136 85 54 80 131 175 207 185 350 123 182 116 153 55 43 48 56 55 37 29 26 22 27 26 27 28 21 29 29 29 18 244 190 195 235 237 196 87
31 11 352 117 102 84 111 118 112 56 73 210 308 153 132 332 353 8 191 140 92 65 51 50 40 23 20 22 25 30 28 29 17 31 35 27 15 6 32 55 91 184 123 62
123 137 52 157 131 157 167 169 149 157 185 169 15 220 171 341 24 74 60 92 86 67 70 59 43 29 22 23 27 27 30 28 24 30 35 30 32 37 38 31 48 67 87 85
124 20 323 42 123 135 176 179 152 111 33 76 189 78 260 165 78 72 90 90 90 86 67 65 52 36 22 25 30 25 30 29 26 26 41 36 36 40 52 50 45 44 51 71
192 107 333 9 77 41 158 151 95 19 112 114 297 243 112 331 354 130 113 111 100 85 48 38 43 36 27 32 37 33 36 37 28 30 42 47 43 46 46 57 57 53 40 62
127 84 123 76 28 138 127 87 65 99 86 154 134 276 290 309 307 199 161 156 137 110 89 73 58 54 51 38 37 38 38 34 31 36 46 52 48 51 56 57 59 57 51 45
19 108 65 61 61 13 280 154 122 125 235 130 121 221 233 17 359 125 165 148 122 104 96 77 48 45 41 41 36 36 33 39 31 45 52 57 55 53 56 56 50 57 56 61
16 7 89 26 3 9 68 16 102 96 65 187 112 195 180 101 65 28 206 184 157 148 140 96 55 45 37 28 33 41 39 37 35 52 65 62 58 58 60 59 56 57 61 64
71 58 129 151 153 143 134 141 54 100 94 160 154 125 267 167 115 236 222 207 200 190 172 154 131 101 60 51 34 19 48 51 58 65 68 67 63 67 64 62 61 61 62 68
79 94 53 47 6 70 125 149 124 96 177 133 212 152 210 162 54 355 318 191 201 209 198 185 157 132 101 76 55 32 40 58 69 75 75 72 70 72 72 67 62 61 63 65
17 114 114 27 0 32 76 72 96 79 87 77 59 284 121 116 118 45 316 197 215 230 219 183 161 152 145 123 104 74 41 41 72 82 82 85 79 74 72 73 75 74 70 68
55 123 70 285 345 360 9 221 170 131 131 136 164 231 26 229 187 160 297 238 245 212 199 187 177 169 155 141 126 110 95 75 57 74 82 77 84 83 72 78 83 81 78 78
99 79 48 137 11 48 246 340 319 164 186 200 284 274 293 276 302 297 351 293 288 214 189 173 158 147 132 123 117 124 113 95 85 63 70 76 80 87 80 76 74 74 74 77
46 108 77 122 167 282 334 189 162 170 217 192 201 156 331 311 287 41 28 10 316 304 192 168 153 146 141 142 140 122 103 106 104 105 93 88 95 96 94 89 85 72 80 73
44 49 101 66 120 181 242 195 166 109 319 176 141 124 11 336 67 278 349 342 348 346 100 146 133 126 141 151 146 132 135 133 130 138 124 114 116 102 98 103 94 78 83 90
11 6 109 103 152 288 244 195 152 85 234 162 166 157 123 97 188 238 306 322 321 347 139 123 137 153 157 151 149 146 151 158 149 130 116 105 104 117 121 113 99 118 112 107
163 122 171 72 59 293 189 100 158 211 107 154 171 183 188 225 272 281 278 230 178 182 123 147 148 151 149 158 155 159 168 150 137 129 119 114 108 110 111 112 93 98 103 103
328 177 182 180 213 236 232 219 227 177 154 192 177 205 200 211 242 282 279 284 247 185 170 155 157 149 160 166 169 157 160 144 138 137 142 123 104 105 119 129 121 110 119 128
255 177 180 56 273 235 234 256 250 202 203 178 190 188 190 210 222 247 259 248 230 214 197 174 153 169 188 184 175 161 152 145 135 145 154 149 149 141 116 125 148 145 159 161
199 119 183 268 285 310 258 219 216 220 183 210 249 209 219 188 232 215 243 257 217 212 200 172 185 188 196 170 169 153 156 154 162 148 153 159 163 165 140 121 163 162 185 180
186 189 171 225 211 175 232 240 177 183 204 214 188 243 237 192 219 187 246 226 200 194 183 188 196 182 198 187 170 177 166 160 156 160 173 179 168 168 163 159 172 261 199 215